647  
ASCA42 TJSJ 291510  
RWRPR  
PUERTO RICO/U.S. VIRGIN ISLANDS HOURLY WEATHER ROUNDUP  
NATIONAL WEATHER SERVICE SAN JUAN PR  
1100 AM AST WED MAR 29 2017  
 
PRZ001>002-007>008-010-291600-  
PUERTO RICO  
 
CITY SKY/WX TMP DP RH WIND PRES REMARKS
 
SAN JUAN LMM MOSUNNY 82 75 78 N8 29.98F  
AGUADILLA MOSUNNY 81 70 69 NE8 30.01S  
CEIBA MOSUNNY 88 73 62 NE13 29.99F HX 96  

 
 
VIZ001>002-291600-  
U.S. VIRGIN ISLANDS  
 
CITY SKY/WX TMP DP RH WIND PRES REMARKS
 
CHARLOTTE AMA SUNNY 82 73 74 N14 29.97S  
CHRISTIANSTED PTSUNNY 82 72 69 N7 29.98S  

 
 
HOURLY WEATHER ROUNDUP FOR THE NEWS MEDIA  
 
CITY SKY/WX TMP DP RH WIND PRES REMARKS
 
ORLANDO SUNNY 79 62 56 VRB3 30.07R  
NEW YORK PTSUNNY 50 37 61 N23G30 30.08R  
NEWARK MOSUNNY 51 37 58 NW12 30.08S  
CHICAGO CLOUDY 44 35 70 NE12 30.24R  
HARTFORD CLOUDY 42 37 82 N8 30.00R  
BOSTON CLOUDY 41 38 89 N12 30.04R  
DALLAS MOSUNNY 66 59 78 S16 29.72R  
PHILADELPHIA MOSUNNY 51 35 54 NW15 30.12R  
LOS ANGELES MOSUNNY 59 54 83 CALM 30.04R  
WASHINGTON DC PTSUNNY 43 37 81 E12G17 30.22R  
 
CLICK HERE TO GO TO PREVIOUS BULLETINS.

The Nexlab PR Page Main Text Page